{"data":{"norad_id":41036,"intl_designator":"2015-068A","name":"TELSTAR 12V","alt_names":[],"object_type":"PAYLOAD","status":"ACTIVE","operator":null,"country":"CA","launch_date":"2015-11-24","launch_site_code":"TANSC","launch_vehicle":null,"mission":null,"orbit_class":"UNKNOWN","rcs_meters":29.9526,"size_class":null,"mass_kg":null,"dimensions":null,"purposes":["comms"],"wikipedia_slug":null,"has_3d_model":false,"image_url":null,"decayed_at":null,"tle_current":{"epoch":"2026-05-25T03:40:17.675904Z","epoch_age_seconds":55835,"freshness":"FRESH","line1":"1 41036U 15068A   26145.15298236 -.00000121  00000+0  00000+0 0  9991","line2":"2 41036   0.0370 105.8121 0002398 312.4901 224.5200  1.00271684 38393","mean_motion":1.00271684,"eccentricity":0.0002398,"inclination_deg":0.037,"raan_deg":105.8121,"arg_perigee_deg":312.4901,"mean_anomaly_deg":224.52,"bstar":0,"rev_number":3839,"period_min":1436.0983505573,"perigee_km":35776.512165667,"apogee_km":35796.734384695,"semimajor_km":42164.760275181,"source":"CELESTRAK","updated_at":"2026-05-25T13:38:13.997124Z"}}}